Manila, Philippines

12:27 PM +08 on August 21, 2017 (GMT +0800)
Ninoy Aquino International

Weather History for RPLL - August, 2017

Change the Weather History Date:

Sunday, August 13, 2017

  Actual Average Record
Temperature  
Mean Temperature 85 °F -  
Max Temperature 91 °F 85 °F 93 °F (1998)
Min Temperature 79 °F 75 °F 75 °F (1999)
Cooling Degree Days 20    
Growing Degree Days 35 (Base 50)    
Moisture  
Dew Point 77 °F    
Average Humidity 74    
Maximum Humidity 100    
Minimum Humidity 49    
Precipitation  
Precipitation 0.00 in 0.48 in - ()
Sea Level Pressure  
Sea Level Pressure 29.82 in    
Wind  
Wind Speed 4 mph ()    
Max Wind Speed 9 mph    
Max Gust Speed -    
Visibility 6.2 miles    
Events      
Averages and records for this station are not official NWS values.
T = Trace of Precipitation, MM = Missing Value Source: Averaged Metar Reports

Daily Weather History Graph

Daily Weather History Graph

Search for Another Location

Airport or City:

Trip Planner

Search our weather history database for the weather conditions in past years. The results will help you decide how hot, cold, wet, or windy it might be!

Date:

Astronomy

Aug. 13, 2017 Rise Set
Actual Time 5:41 AM +08 6:19 PM +08
Civil Twilight 5:19 AM +08 6:42 PM +08
Nautical Twilight 4:53 AM +08 7:08 PM +08
Astronomical Twilight 4:27 AM +08 7:34 PM +08
Moon 10:26 PM +08 (8/13) 10:14 AM +08 (8/13)
Length of Visible Light 13h 22m
Length of Day
12h 38m
Waning Gibbous, 71% of the Moon is Illuminated
Aug 13
Waning Gibbous
Aug 15
Last Quarter
Aug 22
New
Aug 29
First Quarter
Sep 6
Full

Hourly Weather History & Observations

Time (+08) Temp. Heat Index Dew Point Humidity Pressure Visibility Wind Dir Wind Speed Gust Speed Precip Events Conditions
12:00 AM 82.4 °F 89.5 °F 75.2 °F 79% 29.83 in 6.2 mi ESE 3.5 mph - N/A   Scattered Clouds
1:00 AM 82.4 °F 90.9 °F 77.0 °F 84% 29.83 in 6.2 mi Variable 2.3 mph - N/A   Partly Cloudy
2:00 AM 80 °F - 78 °F 93% 29.82 in 6 mi West 2.2 mph - -   Haze
2:00 AM 80.6 °F 88.1 °F 78.8 °F 94% 29.83 in 6.2 mi Variable 2.3 mph - N/A   Partly Cloudy
3:00 AM 82.4 °F 94.0 °F 80.6 °F 94% 29.83 in 6.2 mi WNW 4.6 mph - N/A   Scattered Clouds
4:00 AM 82.4 °F 94.0 °F 80.6 °F 94% 29.83 in 6.2 mi NW 5.8 mph - N/A   Scattered Clouds
5:00 AM 81 °F - 79 °F 93% 29.82 in 6 mi North 8.9 mph - -   Haze
5:00 AM 80.6 °F 88.1 °F 78.8 °F 94% 29.83 in 6.2 mi North 9.2 mph - N/A   Scattered Clouds
6:00 AM 80.6 °F 89.3 °F 80.6 °F 100% 29.83 in 6.2 mi NE 3.5 mph - N/A   Mostly Cloudy
7:00 AM 82.4 °F 94.0 °F 80.6 °F 94% 29.86 in 6.2 mi East 3.5 mph - N/A   Mostly Cloudy
8:00 AM 84 °F - 79 °F 81% 29.87 in 6 mi ENE 2.2 mph - -   Haze
8:00 AM 84.2 °F 96.1 °F 78.8 °F 84% 29.86 in 6.2 mi ENE 3.5 mph - N/A   Mostly Cloudy
9:00 AM 86.0 °F 96.9 °F 77.0 °F 74% 29.86 in 6.2 mi Variable 2.3 mph - N/A   Mostly Cloudy
10:00 AM 87.8 °F 97.6 °F 75.2 °F 66% 29.83 in 6.2 mi Variable 3.5 mph - N/A   Mostly Cloudy
11:00 AM 89 °F - 74 °F 53% 29.84 in 6 mi East 4.5 mph - -   Haze
11:00 AM 89.6 °F 98.2 °F 73.4 °F 59% 29.83 in 6.2 mi Variable 4.6 mph - N/A   Mostly Cloudy
12:00 PM 87.8 °F 99.7 °F 77.0 °F 70% 29.83 in 6.2 mi Variable 2.3 mph - N/A   Mostly Cloudy
1:00 PM 87.8 °F 99.7 °F 77.0 °F 70% 29.80 in 6.2 mi West 6.9 mph - N/A   Overcast
2:00 PM 90 °F - 77 °F 57% 29.78 in 6 mi WNW 4.5 mph - -   Haze
2:00 PM 91.4 °F 105.1 °F 77.0 °F 63% 29.77 in 6.2 mi WNW 4.6 mph - N/A   Mostly Cloudy
3:00 PM 89.6 °F 102.2 °F 77.0 °F 66% 29.77 in 6.2 mi NW 6.9 mph - N/A   Mostly Cloudy
4:00 PM 89.6 °F 102.2 °F 77.0 °F 66% 29.74 in 6.2 mi West 6.9 mph - N/A   Mostly Cloudy
5:00 PM 91 °F - 74 °F 49% 29.76 in 6 mi South 4.5 mph - -   Haze
5:00 PM 91.4 °F 100.1 °F 73.4 °F 55% 29.77 in 6.2 mi Variable 5.8 mph - N/A   Scattered Clouds
6:00 PM 89.6 °F 99.8 °F 75.2 °F 62% 29.80 in 6.2 mi Variable 4.6 mph - N/A   Scattered Clouds
7:00 PM 87.8 °F 95.6 °F 73.4 °F 62% 29.83 in 6.2 mi Variable 2.3 mph - N/A   Partly Cloudy
8:00 PM 87 °F - 74 °F 59% 29.83 in 6 mi Calm Calm - -   Scattered Clouds
8:00 PM 86.0 °F 95.1 °F 75.2 °F 70% 29.83 in 6.2 mi Variable 1.2 mph - N/A   Partly Cloudy
9:00 PM 86.0 °F 95.1 °F 75.2 °F 70% 29.83 in 6.2 mi ESE 4.6 mph - N/A   Partly Cloudy
10:00 PM 86.0 °F 95.1 °F 75.2 °F 70% 29.86 in 6.2 mi SE 3.5 mph - N/A   Partly Cloudy
11:00 PM 85 °F - 76 °F 69% 29.85 in 6 mi East 4.5 mph - -   Scattered Clouds
11:00 PM 84.2 °F 94.1 °F 77.0 °F 79% 29.83 in 6.2 mi East 4.6 mph - N/A   Partly Cloudy